Year,Month,Day,Hour,Minute,Value (Times are PST for temperature in C)
2016,08,25,00,00,18.20
2016,08,25,00,01,18.20
2016,08,25,00,02,18.20
2016,08,25,00,03,18.20
2016,08,25,00,04,18.20
2016,08,25,00,05,18.20
2016,08,25,00,06,18.20
2016,08,25,00,07,18.20
2016,08,25,00,08,18.20
2016,08,25,00,09,18.20
2016,08,25,00,10,18.20
2016,08,25,00,11,18.10
2016,08,25,00,12,18.10
2016,08,25,00,13,18.10
2016,08,25,00,14,18.10
2016,08,25,00,15,18.10
2016,08,25,00,16,18.10
2016,08,25,00,17,18.10
2016,08,25,00,18,18.10
2016,08,25,00,19,18.10
2016,08,25,00,20,18.10
2016,08,25,00,21,18.10
2016,08,25,00,22,18.00
2016,08,25,00,23,17.90
2016,08,25,00,24,17.90
2016,08,25,00,25,17.90
2016,08,25,00,26,17.90
2016,08,25,00,27,17.90
2016,08,25,00,28,17.80
2016,08,25,00,29,17.80
2016,08,25,00,30,17.70
2016,08,25,00,31,17.60
2016,08,25,00,32,17.50
2016,08,25,00,33,17.40
2016,08,25,00,34,17.30
2016,08,25,00,35,17.20
2016,08,25,00,36,17.10
2016,08,25,00,37,17.00
2016,08,25,00,38,17.00
2016,08,25,00,39,17.00
2016,08,25,00,40,16.90
2016,08,25,00,41,16.90
2016,08,25,00,42,16.90
2016,08,25,00,43,16.80
2016,08,25,00,44,16.80
2016,08,25,00,45,16.80
2016,08,25,00,46,16.70
2016,08,25,00,47,16.70
2016,08,25,00,48,16.70
2016,08,25,00,49,16.70
2016,08,25,00,50,16.70
2016,08,25,00,51,16.70
2016,08,25,00,52,16.70
2016,08,25,00,53,16.70
2016,08,25,00,54,16.60
2016,08,25,00,55,16.60
2016,08,25,00,56,16.60
2016,08,25,00,57,16.60
2016,08,25,00,58,16.60
2016,08,25,00,59,16.60
2016,08,25,01,00,16.60
2016,08,25,01,01,16.60
2016,08,25,01,02,16.60
2016,08,25,01,03,16.60
2016,08,25,01,04,16.60
2016,08,25,01,05,16.60
2016,08,25,01,06,16.60
2016,08,25,01,07,16.60
2016,08,25,01,08,16.60
2016,08,25,01,09,16.60
2016,08,25,01,10,16.70
2016,08,25,01,11,16.70
2016,08,25,01,12,16.70
2016,08,25,01,13,16.60
2016,08,25,01,14,16.60
2016,08,25,01,15,16.60
2016,08,25,01,16,16.60
2016,08,25,01,17,16.70
2016,08,25,01,18,16.70
2016,08,25,01,19,16.70
2016,08,25,01,20,16.70
2016,08,25,01,21,16.70
2016,08,25,01,22,16.70
2016,08,25,01,23,16.70
2016,08,25,01,24,16.70
2016,08,25,01,25,16.70
2016,08,25,01,26,16.70
2016,08,25,01,27,16.70
2016,08,25,01,28,16.70
2016,08,25,01,29,16.70
2016,08,25,01,30,16.70
2016,08,25,01,31,16.70
2016,08,25,01,32,16.70
2016,08,25,01,33,16.70
2016,08,25,01,34,16.70
2016,08,25,01,35,16.70
2016,08,25,01,36,16.70
2016,08,25,01,37,16.70
2016,08,25,01,38,16.70
2016,08,25,01,39,16.70
2016,08,25,01,40,16.70
2016,08,25,01,41,16.70
2016,08,25,01,42,16.70
2016,08,25,01,43,16.70
2016,08,25,01,44,16.70
2016,08,25,01,45,16.70
2016,08,25,01,46,16.70
2016,08,25,01,47,16.70
2016,08,25,01,48,16.70
2016,08,25,01,49,16.70
2016,08,25,01,50,16.70
2016,08,25,01,51,16.70
2016,08,25,01,52,16.70
2016,08,25,01,53,16.70
2016,08,25,01,54,16.70
2016,08,25,01,55,16.70
2016,08,25,01,56,16.70
2016,08,25,01,57,16.70
2016,08,25,01,58,16.70
2016,08,25,01,59,16.70
2016,08,25,02,00,16.70
2016,08,25,02,01,16.70
2016,08,25,02,02,16.60
2016,08,25,02,03,16.60
2016,08,25,02,04,16.60
2016,08,25,02,05,16.60
2016,08,25,02,06,16.50
2016,08,25,02,07,16.40
2016,08,25,02,08,16.40
2016,08,25,02,09,16.40
2016,08,25,02,10,16.40
2016,08,25,02,11,16.40
2016,08,25,02,12,16.40
2016,08,25,02,13,16.40
2016,08,25,02,14,16.40
2016,08,25,02,15,16.40
2016,08,25,02,16,16.40
2016,08,25,02,17,16.40
2016,08,25,02,18,16.30
2016,08,25,02,19,16.30
2016,08,25,02,20,16.30
2016,08,25,02,21,16.30
2016,08,25,02,22,16.30
2016,08,25,02,23,16.30
2016,08,25,02,24,16.30
2016,08,25,02,25,16.30
2016,08,25,02,26,16.20
2016,08,25,02,27,16.20
2016,08,25,02,28,16.20
2016,08,25,02,29,16.20
2016,08,25,02,30,16.20
2016,08,25,02,31,16.20
2016,08,25,02,32,16.20
2016,08,25,02,33,16.20
2016,08,25,02,34,16.20
2016,08,25,02,35,16.20
2016,08,25,02,36,16.20
2016,08,25,02,37,16.20
2016,08,25,02,38,16.20
2016,08,25,02,39,16.20
2016,08,25,02,40,16.10
2016,08,25,02,41,16.10
2016,08,25,02,42,16.10
2016,08,25,02,43,16.20
2016,08,25,02,44,16.20
2016,08,25,02,45,16.20
2016,08,25,02,46,16.20
2016,08,25,02,47,16.20
2016,08,25,02,48,16.20
2016,08,25,02,49,16.20
2016,08,25,02,50,16.20
2016,08,25,02,51,16.20
2016,08,25,02,52,16.20
2016,08,25,02,53,16.20
2016,08,25,02,54,16.20
2016,08,25,02,55,16.20
2016,08,25,02,56,16.20
2016,08,25,02,57,16.20
2016,08,25,02,58,16.30
2016,08,25,02,59,16.30
2016,08,25,03,00,16.40
2016,08,25,03,01,16.40
2016,08,25,03,02,16.50
2016,08,25,03,03,16.60
2016,08,25,03,04,16.70
2016,08,25,03,05,16.70
2016,08,25,03,06,16.70
2016,08,25,03,07,16.70
2016,08,25,03,08,16.70
2016,08,25,03,09,16.70
2016,08,25,03,10,16.70
2016,08,25,03,11,16.70
2016,08,25,03,12,16.70
2016,08,25,03,13,16.70
2016,08,25,03,14,16.70
2016,08,25,03,15,16.70
2016,08,25,03,16,16.70
2016,08,25,03,17,16.70
2016,08,25,03,18,16.70
2016,08,25,03,19,16.70
2016,08,25,03,20,16.70
2016,08,25,03,21,16.70
2016,08,25,03,22,16.70
2016,08,25,03,23,16.70
2016,08,25,03,24,16.70
2016,08,25,03,25,16.70
2016,08,25,03,26,16.70
2016,08,25,03,27,16.70
2016,08,25,03,28,16.70
2016,08,25,03,29,16.70
2016,08,25,03,30,16.70
2016,08,25,03,31,16.70
2016,08,25,03,32,16.70
2016,08,25,03,33,16.70
2016,08,25,03,34,16.70
2016,08,25,03,35,16.70
2016,08,25,03,36,16.70
2016,08,25,03,37,16.70
2016,08,25,03,38,16.70
2016,08,25,03,39,16.70
2016,08,25,03,40,16.70
2016,08,25,03,41,16.70
2016,08,25,03,42,16.70
2016,08,25,03,43,16.70
2016,08,25,03,44,16.70
2016,08,25,03,45,16.70
2016,08,25,03,46,16.70
2016,08,25,03,47,16.70
2016,08,25,03,48,16.70
2016,08,25,03,49,16.70
2016,08,25,03,50,16.70
2016,08,25,03,51,16.70
2016,08,25,03,52,16.70
2016,08,25,03,53,16.60
2016,08,25,03,54,16.60
2016,08,25,03,55,16.60
2016,08,25,03,56,16.60
2016,08,25,03,57,16.50
2016,08,25,03,58,16.40
2016,08,25,03,59,16.40
2016,08,25,04,00,16.40
2016,08,25,04,01,16.40
2016,08,25,04,02,16.40
2016,08,25,04,03,16.40
2016,08,25,04,04,16.40
2016,08,25,04,05,16.40
2016,08,25,04,06,16.40
2016,08,25,04,07,16.30
2016,08,25,04,08,16.30
2016,08,25,04,09,16.30
2016,08,25,04,10,16.30
2016,08,25,04,11,16.30
2016,08,25,04,12,16.20
2016,08,25,04,13,16.20
2016,08,25,04,14,16.20
2016,08,25,04,15,16.20
2016,08,25,04,16,16.20
2016,08,25,04,17,16.10
2016,08,25,04,18,16.10
2016,08,25,04,19,16.10
2016,08,25,04,20,16.10
2016,08,25,04,21,16.10
2016,08,25,04,22,16.10
2016,08,25,04,23,16.10
2016,08,25,04,24,16.10
2016,08,25,04,25,16.10
2016,08,25,04,26,16.10
2016,08,25,04,27,16.10
2016,08,25,04,28,16.10
2016,08,25,04,29,16.10
2016,08,25,04,30,16.10
2016,08,25,04,31,16.10
2016,08,25,04,32,16.10
2016,08,25,04,33,16.00
2016,08,25,04,34,15.90
2016,08,25,04,35,15.80
2016,08,25,04,36,15.80
2016,08,25,04,37,15.70
2016,08,25,04,38,15.70
2016,08,25,04,39,15.70
2016,08,25,04,40,15.60
2016,08,25,04,41,15.60
2016,08,25,04,42,15.60
2016,08,25,04,43,15.60
2016,08,25,04,44,15.60
2016,08,25,04,45,15.60
2016,08,25,04,46,15.60
2016,08,25,04,47,15.60
2016,08,25,04,48,15.60
2016,08,25,04,49,15.50
2016,08,25,04,50,15.50
2016,08,25,04,51,15.50
2016,08,25,04,52,15.50
2016,08,25,04,53,15.50
2016,08,25,04,54,15.50
2016,08,25,04,55,15.50
2016,08,25,04,56,15.50
2016,08,25,04,57,15.50
2016,08,25,04,58,15.50
2016,08,25,04,59,15.50
2016,08,25,05,00,15.50
2016,08,25,05,01,15.50
2016,08,25,05,02,15.50
2016,08,25,05,03,15.50
2016,08,25,05,04,15.50
2016,08,25,05,05,15.50
2016,08,25,05,06,15.40
2016,08,25,05,07,15.40
2016,08,25,05,08,15.40
2016,08,25,05,09,15.40
2016,08,25,05,10,15.40
2016,08,25,05,11,15.30
2016,08,25,05,12,15.30
2016,08,25,05,13,15.30
2016,08,25,05,14,15.30
2016,08,25,05,15,15.30
2016,08,25,05,16,15.30
2016,08,25,05,17,15.30
2016,08,25,05,18,15.30
2016,08,25,05,19,15.30
2016,08,25,05,20,15.30
2016,08,25,05,21,15.30
2016,08,25,05,22,15.30
2016,08,25,05,23,15.30
2016,08,25,05,24,15.30
2016,08,25,05,25,15.30
2016,08,25,05,26,15.20
2016,08,25,05,27,15.20
2016,08,25,05,28,15.20
2016,08,25,05,29,15.20
2016,08,25,05,30,15.20
2016,08,25,05,31,15.20
2016,08,25,05,32,15.20
2016,08,25,05,33,15.20
2016,08,25,05,34,15.20
2016,08,25,05,35,15.20
2016,08,25,05,36,15.20
2016,08,25,05,37,15.20
2016,08,25,05,38,15.20
2016,08,25,05,39,15.20
2016,08,25,05,40,15.20
2016,08,25,05,41,15.20
2016,08,25,05,42,15.20
2016,08,25,05,43,15.20
2016,08,25,05,44,15.20
2016,08,25,05,45,15.20
2016,08,25,05,46,15.20
2016,08,25,05,47,15.10
2016,08,25,05,48,15.10
2016,08,25,05,49,15.10
2016,08,25,05,50,15.10
2016,08,25,05,51,15.10
2016,08,25,05,52,15.10
2016,08,25,05,53,15.10
2016,08,25,05,54,15.10
2016,08,25,05,55,15.10
2016,08,25,05,56,15.10
2016,08,25,05,57,15.00
2016,08,25,05,58,14.90
2016,08,25,05,59,14.90
2016,08,25,06,00,14.90
2016,08,25,06,01,14.90
2016,08,25,06,02,14.80
2016,08,25,06,03,14.80
2016,08,25,06,04,14.80
2016,08,25,06,05,14.80
2016,08,25,06,06,14.80
2016,08,25,06,07,14.80
2016,08,25,06,08,14.80
2016,08,25,06,09,14.80
2016,08,25,06,10,14.80
2016,08,25,06,11,14.80
2016,08,25,06,12,14.80
2016,08,25,06,13,14.70
2016,08,25,06,14,14.70
2016,08,25,06,15,14.70
2016,08,25,06,16,14.70
2016,08,25,06,17,14.70
2016,08,25,06,18,14.60
2016,08,25,06,19,14.60
2016,08,25,06,20,14.60
2016,08,25,06,21,14.60
2016,08,25,06,22,14.70
2016,08,25,06,23,14.70
2016,08,25,06,24,14.70
2016,08,25,06,25,14.70
2016,08,25,06,26,14.70
2016,08,25,06,27,14.70
2016,08,25,06,28,14.70
2016,08,25,06,29,14.70
2016,08,25,06,30,14.70
2016,08,25,06,31,14.70
2016,08,25,06,32,14.70
2016,08,25,06,33,14.70
2016,08,25,06,34,14.70
2016,08,25,06,35,14.70
2016,08,25,06,36,14.70
2016,08,25,06,37,14.70
2016,08,25,06,38,14.70
2016,08,25,06,39,14.60
2016,08,25,06,40,14.60
2016,08,25,06,41,14.60
2016,08,25,06,42,14.60
2016,08,25,06,43,14.60
2016,08,25,06,44,14.60
2016,08,25,06,45,14.50
2016,08,25,06,46,14.50
2016,08,25,06,47,14.50
2016,08,25,06,48,14.50
2016,08,25,06,49,14.50
2016,08,25,06,50,14.50
2016,08,25,06,51,14.50
2016,08,25,06,52,14.50
2016,08,25,06,53,14.50
2016,08,25,06,54,14.60
2016,08,25,06,55,14.60
2016,08,25,06,56,14.60
2016,08,25,06,57,14.60
2016,08,25,06,58,14.60
2016,08,25,06,59,14.60
2016,08,25,07,00,14.60
2016,08,25,07,01,14.70
2016,08,25,07,02,14.70
2016,08,25,07,03,14.70
2016,08,25,07,04,14.80
2016,08,25,07,05,14.80
2016,08,25,07,06,14.80
2016,08,25,07,07,14.90
2016,08,25,07,08,14.90
2016,08,25,07,09,15.00
2016,08,25,07,10,15.00
2016,08,25,07,11,15.10
2016,08,25,07,12,15.10
2016,08,25,07,13,15.20
2016,08,25,07,14,15.20
2016,08,25,07,15,15.20
2016,08,25,07,16,15.30
2016,08,25,07,17,15.30
2016,08,25,07,18,15.30
2016,08,25,07,19,15.40
2016,08,25,07,20,15.50
2016,08,25,07,21,15.50
2016,08,25,07,22,15.60
2016,08,25,07,23,15.60
2016,08,25,07,24,15.70
2016,08,25,07,25,15.80
2016,08,25,07,26,15.80
2016,08,25,07,27,15.90
2016,08,25,07,28,16.00
2016,08,25,07,29,16.10
2016,08,25,07,30,16.10
2016,08,25,07,31,16.20
2016,08,25,07,32,16.30
2016,08,25,07,33,16.30
2016,08,25,07,34,16.40
2016,08,25,07,35,16.50
2016,08,25,07,36,16.60
2016,08,25,07,37,16.70
2016,08,25,07,38,16.80
2016,08,25,07,39,16.90
2016,08,25,07,40,17.00
2016,08,25,07,41,17.10
2016,08,25,07,42,17.30
2016,08,25,07,43,17.30
2016,08,25,07,44,17.40
2016,08,25,07,45,17.50
2016,08,25,07,46,17.60
2016,08,25,07,47,17.70
2016,08,25,07,48,17.80
2016,08,25,07,49,17.90
2016,08,25,07,50,17.90
2016,08,25,07,51,17.90
2016,08,25,07,52,17.90
2016,08,25,07,53,17.90
2016,08,25,07,54,17.90
2016,08,25,07,55,17.80
2016,08,25,07,56,17.80
2016,08,25,07,57,17.70
2016,08,25,07,58,17.70
2016,08,25,07,59,17.70
2016,08,25,08,00,17.70
2016,08,25,08,01,17.80
2016,08,25,08,02,17.80
2016,08,25,08,03,17.90
2016,08,25,08,04,17.90
2016,08,25,08,05,17.90
2016,08,25,08,06,17.90
2016,08,25,08,07,17.90
2016,08,25,08,08,17.90
2016,08,25,08,09,17.90
2016,08,25,08,10,17.90
2016,08,25,08,11,17.90
2016,08,25,08,12,17.80
2016,08,25,08,13,17.80
2016,08,25,08,14,17.90
2016,08,25,08,15,17.90
2016,08,25,08,16,17.90
2016,08,25,08,17,17.90
2016,08,25,08,18,17.90
2016,08,25,08,19,17.90
2016,08,25,08,20,17.90
2016,08,25,08,21,17.90
2016,08,25,08,22,17.90
2016,08,25,08,23,17.90
2016,08,25,08,24,18.00
2016,08,25,08,25,18.10
2016,08,25,08,26,18.10
2016,08,25,08,27,18.20
2016,08,25,08,28,18.20
2016,08,25,08,29,18.20
2016,08,25,08,30,18.20
2016,08,25,08,31,18.10
2016,08,25,08,32,18.10
2016,08,25,08,33,18.10
2016,08,25,08,34,18.10
2016,08,25,08,35,18.10
2016,08,25,08,36,18.10
2016,08,25,08,37,18.10
2016,08,25,08,38,18.10
2016,08,25,08,39,18.10
2016,08,25,08,40,18.10
2016,08,25,08,41,18.10
2016,08,25,08,42,18.10
2016,08,25,08,43,18.20
2016,08,25,08,44,18.20
2016,08,25,08,45,18.30
2016,08,25,08,46,18.30
2016,08,25,08,47,18.40
2016,08,25,08,48,18.40
2016,08,25,08,49,18.40
2016,08,25,08,50,18.40
2016,08,25,08,51,18.40
2016,08,25,08,52,18.40
2016,08,25,08,53,18.30
2016,08,25,08,54,18.30
2016,08,25,08,55,18.20
2016,08,25,08,56,18.10
2016,08,25,08,57,17.90
2016,08,25,08,58,17.90
2016,08,25,08,59,17.80
2016,08,25,09,00,17.80
2016,08,25,09,01,17.80
2016,08,25,09,02,17.80
2016,08,25,09,03,17.80
2016,08,25,09,04,17.90
2016,08,25,09,05,17.90
2016,08,25,09,06,17.90
2016,08,25,09,07,17.90
2016,08,25,09,08,17.90
2016,08,25,09,09,17.90
2016,08,25,09,10,18.00
2016,08,25,09,11,18.10
2016,08,25,09,12,18.10
2016,08,25,09,13,18.20
2016,08,25,09,14,18.30
2016,08,25,09,15,18.40
2016,08,25,09,16,18.50
2016,08,25,09,17,18.60
2016,08,25,09,18,18.80
2016,08,25,09,19,18.90
2016,08,25,09,20,19.10
2016,08,25,09,21,19.20
2016,08,25,09,22,19.30
2016,08,25,09,23,19.40
2016,08,25,09,24,19.50
2016,08,25,09,25,19.60
2016,08,25,09,26,19.70
2016,08,25,09,27,19.80
2016,08,25,09,28,19.90
2016,08,25,09,29,20.10
2016,08,25,09,30,20.20
2016,08,25,09,31,20.30
2016,08,25,09,32,20.50
2016,08,25,09,33,20.60
2016,08,25,09,34,20.70
2016,08,25,09,35,20.80
2016,08,25,09,36,20.80
2016,08,25,09,37,20.90
2016,08,25,09,38,20.90
2016,08,25,09,39,21.00
2016,08,25,09,40,21.00
2016,08,25,09,41,21.10
2016,08,25,09,42,21.20
2016,08,25,09,43,21.20
2016,08,25,09,44,21.30
2016,08,25,09,45,21.30
2016,08,25,09,46,21.30
2016,08,25,09,47,21.30
2016,08,25,09,48,21.30
2016,08,25,09,49,21.30
2016,08,25,09,50,21.40
2016,08,25,09,51,21.50
2016,08,25,09,52,21.60
2016,08,25,09,53,21.60
2016,08,25,09,54,21.60
2016,08,25,09,55,21.70
2016,08,25,09,56,21.70
2016,08,25,09,57,21.60
2016,08,25,09,58,21.60
2016,08,25,09,59,21.60
2016,08,25,10,00,21.70
2016,08,25,10,01,21.80
2016,08,25,10,02,21.80
2016,08,25,10,03,22.00
2016,08,25,10,04,22.50
2016,08,25,10,05,22.80
2016,08,25,10,06,23.10
2016,08,25,10,07,23.40
2016,08,25,10,08,23.70
2016,08,25,10,09,23.90
2016,08,25,10,10,24.10
2016,08,25,10,11,24.20
2016,08,25,10,12,24.30
2016,08,25,10,13,24.50
2016,08,25,10,14,24.50
2016,08,25,10,15,24.70
2016,08,25,10,16,24.80
2016,08,25,10,17,24.90
2016,08,25,10,18,24.90
2016,08,25,10,19,25.10
2016,08,25,10,20,25.30
2016,08,25,10,21,25.30
2016,08,25,10,22,25.40
2016,08,25,10,23,25.40
2016,08,25,10,24,25.40
2016,08,25,10,25,25.30
2016,08,25,10,26,25.30
2016,08,25,10,27,25.30
2016,08,25,10,28,25.30
2016,08,25,10,29,25.30
2016,08,25,10,30,25.40
2016,08,25,10,31,25.50
2016,08,25,10,32,25.60
2016,08,25,10,33,25.60
2016,08,25,10,34,25.70
2016,08,25,10,35,25.60
2016,08,25,10,36,25.30
2016,08,25,10,37,25.20
2016,08,25,10,38,25.30
2016,08,25,10,39,25.10
2016,08,25,10,40,24.80
2016,08,25,10,41,24.50
2016,08,25,10,42,24.20
2016,08,25,10,43,24.10
2016,08,25,10,44,24.00
2016,08,25,10,45,23.90
2016,08,25,10,46,23.70
2016,08,25,10,47,23.60
2016,08,25,10,48,23.50
2016,08,25,10,49,23.30
2016,08,25,10,50,23.20
2016,08,25,10,51,23.10
2016,08,25,10,52,23.10
2016,08,25,10,53,23.10
2016,08,25,10,54,23.10
2016,08,25,10,55,23.10
2016,08,25,10,56,23.20
2016,08,25,10,57,23.20
2016,08,25,10,58,23.10
2016,08,25,10,59,23.10
2016,08,25,11,00,22.90
2016,08,25,11,01,22.80
2016,08,25,11,02,22.80
2016,08,25,11,03,22.70
2016,08,25,11,04,22.60
2016,08,25,11,05,22.50
2016,08,25,11,06,22.20
2016,08,25,11,07,22.00
2016,08,25,11,08,21.80
2016,08,25,11,09,21.60
2016,08,25,11,10,21.50
2016,08,25,11,11,21.30
2016,08,25,11,12,21.30
2016,08,25,11,13,21.30
2016,08,25,11,14,21.30
2016,08,25,11,15,21.30
2016,08,25,11,16,21.30
2016,08,25,11,17,21.20
2016,08,25,11,18,21.00
2016,08,25,11,19,21.00
2016,08,25,11,20,20.80
2016,08,25,11,21,20.60
2016,08,25,11,22,20.60
2016,08,25,11,23,20.50
2016,08,25,11,24,20.30
2016,08,25,11,25,20.30
2016,08,25,11,26,20.30
2016,08,25,11,27,20.40
2016,08,25,11,28,20.40
2016,08,25,11,29,20.50
2016,08,25,11,30,20.60
2016,08,25,11,31,20.70
2016,08,25,11,32,20.70
2016,08,25,11,33,20.80
2016,08,25,11,34,20.90
2016,08,25,11,35,21.00
2016,08,25,11,36,21.00
2016,08,25,11,37,20.90
2016,08,25,11,38,20.90
2016,08,25,11,39,21.00
2016,08,25,11,40,21.00
2016,08,25,11,41,20.90
2016,08,25,11,42,20.90
2016,08,25,11,43,21.00
2016,08,25,11,44,21.10
2016,08,25,11,45,21.10
2016,08,25,11,46,21.10
2016,08,25,11,47,21.10
2016,08,25,11,48,21.20
2016,08,25,11,49,21.30
2016,08,25,11,50,21.50
2016,08,25,11,51,21.60
2016,08,25,11,52,21.80
2016,08,25,11,53,21.80
2016,08,25,11,54,21.80
2016,08,25,11,55,21.70
2016,08,25,11,56,21.60
2016,08,25,11,57,21.60
2016,08,25,11,58,21.60
2016,08,25,11,59,21.60
2016,08,25,12,00,21.60
2016,08,25,12,01,21.60
2016,08,25,12,02,21.60
2016,08,25,12,03,21.60
2016,08,25,12,04,21.60
2016,08,25,12,05,21.60
2016,08,25,12,06,21.70
2016,08,25,12,07,21.70
2016,08,25,12,08,21.70
2016,08,25,12,09,21.80
2016,08,25,12,10,21.80
2016,08,25,12,11,21.80
2016,08,25,12,12,21.90
2016,08,25,12,13,22.00
2016,08,25,12,14,22.20
2016,08,25,12,15,22.40
2016,08,25,12,16,22.50
2016,08,25,12,17,22.60
2016,08,25,12,18,22.70
2016,08,25,12,19,22.90
2016,08,25,12,20,23.00
2016,08,25,12,21,23.20
2016,08,25,12,22,23.30
2016,08,25,12,23,23.40
2016,08,25,12,24,23.60
2016,08,25,12,25,23.70
2016,08,25,12,26,23.70
2016,08,25,12,27,23.90
2016,08,25,12,28,23.90
2016,08,25,12,29,24.00
2016,08,25,12,30,24.10
2016,08,25,12,31,24.30
2016,08,25,12,32,24.40
2016,08,25,12,33,24.50
2016,08,25,12,34,24.70
2016,08,25,12,35,24.70
2016,08,25,12,36,24.70
2016,08,25,12,37,24.70
2016,08,25,12,38,24.60
2016,08,25,12,39,24.60
2016,08,25,12,40,24.60
2016,08,25,12,41,24.60
2016,08,25,12,42,24.50
2016,08,25,12,43,24.50
2016,08,25,12,44,24.50
2016,08,25,12,45,24.60
2016,08,25,12,46,24.60
2016,08,25,12,47,24.60
2016,08,25,12,48,24.70
2016,08,25,12,49,24.80
2016,08,25,12,50,24.90
2016,08,25,12,51,25.00
2016,08,25,12,52,25.10
2016,08,25,12,53,25.20
2016,08,25,12,54,25.40
2016,08,25,12,55,25.60
2016,08,25,12,56,25.70
2016,08,25,12,57,25.70
2016,08,25,12,58,25.60
2016,08,25,12,59,25.70
2016,08,25,13,00,25.80
2016,08,25,13,01,25.80
2016,08,25,13,02,25.80
2016,08,25,13,03,25.90
2016,08,25,13,04,25.90
2016,08,25,13,05,26.10
2016,08,25,13,06,26.10
2016,08,25,13,07,26.00
2016,08,25,13,08,26.00
2016,08,25,13,09,25.90
2016,08,25,13,10,25.70
2016,08,25,13,11,25.50
2016,08,25,13,12,25.40
2016,08,25,13,13,25.20
2016,08,25,13,14,25.20
2016,08,25,13,15,25.20
2016,08,25,13,16,25.30
2016,08,25,13,17,25.40
2016,08,25,13,18,25.50
2016,08,25,13,19,25.40
2016,08,25,13,20,25.50
2016,08,25,13,21,25.50
2016,08,25,13,22,25.50
2016,08,25,13,23,25.50
2016,08,25,13,24,25.50
2016,08,25,13,25,25.50
2016,08,25,13,26,25.40
2016,08,25,13,27,25.30
2016,08,25,13,28,25.30
2016,08,25,13,29,25.30
2016,08,25,13,30,25.10
2016,08,25,13,31,25.00
2016,08,25,13,32,24.90
2016,08,25,13,33,24.80
2016,08,25,13,34,24.60
2016,08,25,13,35,24.60
2016,08,25,13,36,24.50
2016,08,25,13,37,24.50
2016,08,25,13,38,24.50
2016,08,25,13,39,24.50
2016,08,25,13,40,24.50
2016,08,25,13,41,24.50
2016,08,25,13,42,24.60
2016,08,25,13,43,24.70
2016,08,25,13,44,24.90
2016,08,25,13,45,24.90
2016,08,25,13,46,24.80
2016,08,25,13,47,24.70
2016,08,25,13,48,24.70
2016,08,25,13,49,24.70
2016,08,25,13,50,24.70
2016,08,25,13,51,24.70
2016,08,25,13,52,24.70
2016,08,25,13,53,24.60
2016,08,25,13,54,24.40
2016,08,25,13,55,24.30
2016,08,25,13,56,24.30
2016,08,25,13,57,24.40
2016,08,25,13,58,24.60
2016,08,25,13,59,24.60
2016,08,25,14,00,24.60
2016,08,25,14,01,24.60
2016,08,25,14,02,24.70
2016,08,25,14,03,24.80
2016,08,25,14,04,25.00
2016,08,25,14,05,24.90
2016,08,25,14,06,24.90
2016,08,25,14,07,24.90
2016,08,25,14,08,24.90
2016,08,25,14,09,24.90
2016,08,25,14,10,24.70
2016,08,25,14,11,24.40
2016,08,25,14,12,24.30
2016,08,25,14,13,24.10
2016,08,25,14,14,24.10
2016,08,25,14,15,24.10
2016,08,25,14,16,24.20
2016,08,25,14,17,24.40
2016,08,25,14,18,24.40
2016,08,25,14,19,24.40
2016,08,25,14,20,24.30
2016,08,25,14,21,24.30
2016,08,25,14,22,24.40
2016,08,25,14,23,24.50
2016,08,25,14,24,24.60
2016,08,25,14,25,24.70
2016,08,25,14,26,24.70
2016,08,25,14,27,24.70
2016,08,25,14,28,24.80
2016,08,25,14,29,24.80
2016,08,25,14,30,24.80
2016,08,25,14,31,24.80
2016,08,25,14,32,24.90
2016,08,25,14,33,25.00
2016,08,25,14,34,24.90
2016,08,25,14,35,24.80
2016,08,25,14,36,24.80
2016,08,25,14,37,24.90
2016,08,25,14,38,25.00
2016,08,25,14,39,25.00
2016,08,25,14,40,25.20
2016,08,25,14,41,25.30
2016,08,25,14,42,25.40
2016,08,25,14,43,25.50
2016,08,25,14,44,25.50
2016,08,25,14,45,25.50
2016,08,25,14,46,25.40
2016,08,25,14,47,25.40
2016,08,25,14,48,25.30
2016,08,25,14,49,25.40
2016,08,25,14,50,25.50
2016,08,25,14,51,25.50
2016,08,25,14,52,25.50
2016,08,25,14,53,25.50
2016,08,25,14,54,25.50
2016,08,25,14,55,25.50
2016,08,25,14,56,25.70
2016,08,25,14,57,25.60
2016,08,25,14,58,25.40
2016,08,25,14,59,25.50
2016,08,25,15,00,25.50
2016,08,25,15,01,25.50
2016,08,25,15,02,25.70
2016,08,25,15,03,25.80
2016,08,25,15,04,25.90
2016,08,25,15,05,26.00
2016,08,25,15,06,26.20
2016,08,25,15,07,26.30
2016,08,25,15,08,26.30
2016,08,25,15,09,26.20
2016,08,25,15,10,26.20
2016,08,25,15,11,26.10
2016,08,25,15,12,26.10
2016,08,25,15,13,26.00
2016,08,25,15,14,26.00
2016,08,25,15,15,26.00
2016,08,25,15,16,25.80
2016,08,25,15,17,25.70
2016,08,25,15,18,25.80
2016,08,25,15,19,25.80
2016,08,25,15,20,25.80
2016,08,25,15,21,25.80
2016,08,25,15,22,25.80
2016,08,25,15,23,25.80
2016,08,25,15,24,25.80
2016,08,25,15,25,25.80
2016,08,25,15,26,25.60
2016,08,25,15,27,25.40
2016,08,25,15,28,25.30
2016,08,25,15,29,25.40
2016,08,25,15,30,25.50
2016,08,25,15,31,25.50
2016,08,25,15,32,25.40
2016,08,25,15,33,25.50
2016,08,25,15,34,25.50
2016,08,25,15,35,25.40
2016,08,25,15,36,25.50
2016,08,25,15,37,25.60
2016,08,25,15,38,25.50
2016,08,25,15,39,25.30
2016,08,25,15,40,25.20
2016,08,25,15,41,25.10
2016,08,25,15,42,25.10
2016,08,25,15,43,25.00
2016,08,25,15,44,24.90
2016,08,25,15,45,24.90
2016,08,25,15,46,24.80
2016,08,25,15,47,24.90
2016,08,25,15,48,25.00
2016,08,25,15,49,25.20
2016,08,25,15,50,25.20
2016,08,25,15,51,25.20
2016,08,25,15,52,25.10
2016,08,25,15,53,25.00
2016,08,25,15,54,25.10
2016,08,25,15,55,25.10
2016,08,25,15,56,25.10
2016,08,25,15,57,25.10
2016,08,25,15,58,25.10
2016,08,25,15,59,25.00
2016,08,25,16,00,25.00
2016,08,25,16,01,24.90
2016,08,25,16,02,25.00
2016,08,25,16,03,25.10
2016,08,25,16,04,25.20
2016,08,25,16,05,25.40
2016,08,25,16,06,25.40
2016,08,25,16,07,25.50
2016,08,25,16,08,25.60
2016,08,25,16,09,25.60
2016,08,25,16,10,25.70
2016,08,25,16,11,25.80
2016,08,25,16,12,25.90
2016,08,25,16,13,25.90
2016,08,25,16,14,26.00
2016,08,25,16,15,26.10
2016,08,25,16,16,26.10
2016,08,25,16,17,26.00
2016,08,25,16,18,26.10
2016,08,25,16,19,26.20
2016,08,25,16,20,26.20
2016,08,25,16,21,26.20
2016,08,25,16,22,26.30
2016,08,25,16,23,26.40
2016,08,25,16,24,26.50
2016,08,25,16,25,26.60
2016,08,25,16,26,26.70
2016,08,25,16,27,26.80
2016,08,25,16,28,26.90
2016,08,25,16,29,27.00
2016,08,25,16,30,27.10
2016,08,25,16,31,27.10
2016,08,25,16,32,27.20
2016,08,25,16,33,27.20
2016,08,25,16,34,27.30
2016,08,25,16,35,27.30
2016,08,25,16,36,27.30
2016,08,25,16,37,27.30
2016,08,25,16,38,27.20
2016,08,25,16,39,27.10
2016,08,25,16,40,27.00
2016,08,25,16,41,26.90
2016,08,25,16,42,26.90
2016,08,25,16,43,26.80
2016,08,25,16,44,27.00
2016,08,25,16,45,27.10
2016,08,25,16,46,27.10
2016,08,25,16,47,27.20
2016,08,25,16,48,27.30
2016,08,25,16,49,27.30
2016,08,25,16,50,27.30
2016,08,25,16,51,27.40
2016,08,25,16,52,27.50
2016,08,25,16,53,27.60
2016,08,25,16,54,27.60
2016,08,25,16,55,27.70
2016,08,25,16,56,27.70
2016,08,25,16,57,27.70
2016,08,25,16,58,27.70
2016,08,25,16,59,27.60
2016,08,25,17,00,27.60
2016,08,25,17,01,27.70
2016,08,25,17,02,27.80
2016,08,25,17,03,27.90
2016,08,25,17,04,28.00
2016,08,25,17,05,28.20
2016,08,25,17,06,28.20
2016,08,25,17,07,28.30
2016,08,25,17,08,28.30
2016,08,25,17,09,28.20
2016,08,25,17,10,28.20
2016,08,25,17,11,28.20
2016,08,25,17,12,28.10
2016,08,25,17,13,28.00
2016,08,25,17,14,27.90
2016,08,25,17,15,27.90
2016,08,25,17,16,27.90
2016,08,25,17,17,28.00
2016,08,25,17,18,27.90
2016,08,25,17,19,27.90